Zurück zum Katalog

STARLINK-30874

AktivKommunikationVLEO
NORAD 58227·PAYLOAD·🇺🇸 United States

Gestartet Nov 3, 2023 von Cape Canaveral Space Force Station

Loading…

Nächste Überflüge (nächste 24 Stunden)

TLE

AktuellSource: CelesTrak SupGP

Epoche: Sep 15, 2026, 02:45 UTC

1 58227C 23170X   26258.11506944  .00005382  00000+0  19497-3 0  2588
2 58227  42.9996 204.5810 0001296 263.9639 251.6726 15.27571972    17

Verfolge STARLINK-30874 in Echtzeit mit AllMySat

Download on the App Store